Location: Pardubice
(50.0330°N, 15.7830°E)
Time: 03:59:42
(UTC+01:00)

ISS - Visible Passes

Search period start: 22 March 2023 00:00
Search period end: 01 April 2023 01:00
Orbit: 414 x 423 km, 51.6° (Epoch: 22 March)

Date Brightness Start Highest point End Pass type
(mag) Time Alt. Az. Time Alt. Az. Time Alt. Az.
22 Mar -3.8 18:41:23 10° WSW 18:44:44 75° SSE 18:48:05 10° ENE visible
22 Mar -3.5 20:18:16 10° W 20:21:37 63° N 20:21:37 63° N visible
23 Mar -3.5 19:30:24 10° W 19:33:45 66° N 19:35:46 22° ENE visible
23 Mar -1.4 21:07:19 10° WNW 21:08:43 23° WNW 21:08:43 23° WNW visible
24 Mar -3.6 18:42:29 10° W 18:45:50 73° NNW 18:49:12 10° ENE visible
24 Mar -3.7 20:19:27 10° WNW 20:22:48 72° N 20:22:48 72° N visible
25 Mar -3.6 19:31:32 10° WNW 19:34:52 65° N 19:36:50 22° E visible
25 Mar -1.4 21:08:22 10° WNW 21:09:46 22° W 21:09:46 22° W visible
26 Mar -3.9 21:20:26 10° WNW 21:23:46 78° SSW 21:23:46 78° SSW visible
27 Mar -3.8 20:32:29 10° WNW 20:35:51 84° NNE 20:37:45 24° ESE visible
27 Mar -1.3 22:09:28 10° W 22:10:41 18° W 22:10:41 18° W visible
28 Mar -3.1 21:21:22 10° W 21:24:33 42° SSW 21:24:40 42° SSW visible
29 Mar -3.5 20:33:18 10° WNW 20:36:38 59° SSW 20:38:39 21° SE visible
29 Mar -0.9 22:11:00 10° WSW 22:11:35 12° WSW 22:11:35 12° WSW visible
30 Mar -1.9 21:22:26 10° W 21:25:02 21° SW 21:25:34 20° SSW visible
31 Mar -2.3 20:34:08 10° W 20:37:07 30° SSW 20:39:36 13° SSE visible
